Weather History for Salt Lake City, UT

Change the Weather History Date:

Tuesday, October 11, 2011

  Actual Average Record
Temperature  
Mean Temperature 59 °F 55 °F  
Max Temperature 67 °F 67 °F 87 °F (1996)
Min Temperature 50 °F 43 °F 27 °F (1946)
Degree Days  
Heating Degree Days 6 10  
Month to date heating degree days 100 94  
Since 1 July heating degree days 100 183  
Cooling Degree Days 0 0  
Month to date cooling degree days 31 5  
Year to date cooling degree days 1161 1158  
Growing Degree Days 8 (Base 50)    
Moisture  
Dew Point 43 °F    
Average Humidity 62    
Maximum Humidity 83    
Minimum Humidity 40    
Precipitation  
Precipitation T in 0.05 in 0.89 in (1997)
Month to date precipitation 1.50 0.52  
Year to date precipitation 17.40 12.24  
Snow  
Snow 0.00 in 0.00 in 0.30 in (1997)
Month to date snowfall T 0.2  
Since 1 July snowfall T 0.2  
Snow Depth 0.00 in    
Sea Level Pressure  
Sea Level Pressure 29.93 in    
Wind  
Wind Speed 8 mph (SSE)    
Max Wind Speed 14 mph    
Max Gust Speed 22 mph    
Visibility 10 miles    
Events      
T = Trace of Precipitation, MM = Missing Value Source: NWS Daily Summary

Daily Weather History Graph

Daily Weather History Graph

Search for Another Location

Airport:

Trip Planner

Search our weather history database for the weather conditions in past years. The results will help you decide how hot, cold, wet, or windy it might be!

Date:

Astronomy

Oct. 11, 2011 Rise Set
Actual Time 7:34 AM MDT 6:53 PM MDT
Civil Twilight 7:07 AM MDT 7:21 PM MDT
Nautical Twilight 6:35 AM MDT 7:53 PM MDT
Astronomical Twilight 6:03 AM MDT 8:24 PM MDT
Moon 6:27 PM MDT (10/11) 7:16 AM MDT (10/11)
Length of Visible Light 12h 14m
Length of Day
11h 19m
Full, 100% of the Moon is Illuminated
Oct 11
Full
Oct 11
Full
Oct 19
Last Quarter
Oct 26
New
Nov 2
First Quarter

Hourly Weather History & Observations

Time (MDT) Temp. Dew Point Humidity Pressure Visibility Wind Dir Wind Speed Gust Speed Precip Events Conditions
12:53 AM 52.0 °F 45.0 °F 77% 29.87 in 10.0 mi ESE 5.8 mph - N/A   Overcast
1:53 AM 52.0 °F 45.0 °F 77% 29.88 in 10.0 mi SE 6.9 mph - N/A   Overcast
2:53 AM 51.1 °F 44.1 °F 77% 29.88 in 10.0 mi SE 6.9 mph - N/A   Overcast
3:53 AM 51.1 °F 43.0 °F 74% 29.89 in 10.0 mi SSE 6.9 mph - N/A   Mostly Cloudy
4:53 AM 51.1 °F 44.1 °F 77% 29.88 in 10.0 mi SE 9.2 mph - N/A   Mostly Cloudy
5:53 AM 51.1 °F 44.1 °F 77% 29.88 in 10.0 mi SE 6.9 mph - N/A   Overcast
6:53 AM 51.8 °F 44.6 °F 76% 29.97 in 10.0 mi SE 8.1 mph - N/A   Mostly Cloudy
7:53 AM 51.8 °F 44.6 °F 76% 29.98 in 10.0 mi ESE 10.4 mph - N/A   Mostly Cloudy
8:53 AM 53.1 °F 44.1 °F 71% 29.91 in 10.0 mi SSE 9.2 mph - N/A   Mostly Cloudy
9:53 AM 55.9 °F 44.1 °F 64% 29.92 in 10.0 mi SE 11.5 mph - N/A   Mostly Cloudy
10:53 AM 61.0 °F 44.1 °F 54% 29.91 in 10.0 mi South 9.2 mph - 0.00 in   Mostly Cloudy
11:53 AM 62.1 °F 43.0 °F 50% 29.91 in 10.0 mi South 8.1 mph - N/A   Mostly Cloudy
12:53 PM 66.0 °F 42.1 °F 42% 29.91 in 10.0 mi Calm Calm - N/A   Mostly Cloudy
1:53 PM 64.4 °F 42.8 °F 45% 29.99 in 10.0 mi South 5.8 mph - N/A   Mostly Cloudy
2:53 PM 64.9 °F 41.0 °F 42% 29.89 in 10.0 mi Calm Calm - N/A   Mostly Cloudy
3:53 PM 66.0 °F 39.9 °F 38% 29.88 in 10.0 mi Calm Calm - N/A   Mostly Cloudy
4:53 PM 66.9 °F 41.0 °F 39% 29.88 in 10.0 mi Variable 5.8 mph - N/A   Scattered Clouds
5:53 PM 64.9 °F 41.0 °F 42% 29.89 in 10.0 mi SSE 4.6 mph - N/A   Mostly Cloudy
6:53 PM 63.0 °F 39.9 °F 43% 29.91 in 10.0 mi Calm Calm - N/A   Scattered Clouds
7:53 PM 57.9 °F 43.0 °F 58% 29.94 in 10.0 mi West 3.5 mph - N/A   Scattered Clouds
8:53 PM 55.0 °F 46.0 °F 72% 29.98 in 10.0 mi North 10.4 mph - N/A   Scattered Clouds
9:53 PM 55.0 °F 45.0 °F 69% 30.02 in 10.0 mi NNW 8.1 mph - N/A   Mostly Cloudy
10:53 PM 54.0 °F 44.1 °F 69% 30.04 in 10.0 mi NW 6.9 mph - N/A   Scattered Clouds
11:53 PM 50.0 °F 42.1 °F 74% 30.08 in 10.0 mi West 4.6 mph - N/A   Scattered Clouds